This is the latest recevied weather packets stored in our database for station/object N0MPM-4. If no packets are shown the sender has not sent any weather packets the latest 10 day(s).
| Time | Temp. | Humidity | Pressure | Rain* | Wind** | Luminosity | Snow |
|---|---|---|---|---|---|---|---|
| 1787495603 | 20° C | 74% | 1020.3 hPa | 0 mm | - | - | - |
| 1787495303 | 20° C | 77% | 1020.2 hPa | 0 mm | - | - | - |
| 1787495003 | 19.44° C | 77% | 1020.1 hPa | 0 mm | - | - | - |
| 1787494946 | 19.44° C | 77% | 1020.1 hPa | 0 mm | - | - | - |
| 1787494703 | 18.89° C | 77% | 1020.2 hPa | 0 mm | - | - | - |
| 1787494635 | 18.89° C | 78% | 1020.2 hPa | 0 mm | - | - | - |
| 1787494585 | 18.89° C | 78% | 1020.2 hPa | 0 mm | - | - | - |
| 1787494403 | 18.33° C | 78% | 1020.1 hPa | 0 mm | - | - | - |
| 1787494225 | 18.33° C | 78% | 1020.1 hPa | 0 mm | - | - | - |
| 1787494105 | 17.78° C | 78% | 1020.2 hPa | 0 mm | - | - | - |
| 1787493930 | 17.78° C | 78% | 1020.3 hPa | 0 mm | - | - | - |
| 1787493865 | 17.78° C | 78% | 1020.3 hPa | 0 mm | - | - | - |
| 1787493803 | 17.78° C | 79% | 1020.3 hPa | 0 mm | - | - | - |
| 1787493570 | 17.22° C | 68% | 1020.3 hPa | 0 mm | - | - | - |
| 1787493554 | 17.78° C | 76% | 1020.3 hPa | 0 mm | - | - | - |
| 1787493504 | 17.78° C | 76% | 1020.3 hPa | 0 mm | - | - | - |
| 1787493206 | 17.22° C | 73% | 1020.3 hPa | 0 mm | - | - | - |
| 1787493203 | 17.22° C | 74% | 1020.3 hPa | 0 mm | - | - | - |
| 1787493145 | 17.22° C | 73% | 1020.3 hPa | 0 mm | - | - | - |
| 1787492903 | 17.22° C | 70% | 1020.3 hPa | 0 mm | - | - | - |
| 1787492784 | 17.22° C | 68% | 1020.3 hPa | 0 mm | - | - | - |
| 1787492603 | 17.22° C | 61% | 1020.3 hPa | 0 mm | - | - | - |
| 1787492425 | 16.67° C | 64% | 1020.4 hPa | 0 mm | - | - | - |
| 1787492303 | 16.67° C | 60% | 1020.3 hPa | 0 mm | - | - | - |
| 1787492065 | 16.67° C | 59% | 1020.3 hPa | 0 mm | - | - | - |
* Rain latest hour (hover to see other rain measurements)
** Current wind speed in m/s (hover to see current wind gust speed)